Home > Weather > Nuremberg > Past weeks

Flag for Germany Past Weather in Nuremberg, Bavaria, Germany — Yesterday and Last 2 Weeks

Now
64 °F

Sprinkles. Partly sunny.


Feels Like: 64 °F
Forecast: 49 / 67 °F
Wind: 3 mph from East

Location: Nuernberg

Current Time: Jul 2, 2016 at 7:54:39 AM

Latest Report: Jul 2, 2016 at 7:20 AM


Visibility: N/A

Pressure: 29.95 "Hg

Humidity: 88%

Dew Point: 61 °F

Location of NurembergLocation

Past Weather in Nuremberg — Graph

°F

Nuremberg Temperature Yesterday

Maximum temperature yesterday: 81 °F (at 5:20 PM)
Minimum temperature yesterday: 59 °F (at 4:50 AM)
Average temperature yesterday: 70 °F

High & Low Weather Summary for the Past Weeks

 TemperatureHumidityPressure
High91 °F (Jun 24, 3:20 PM)100% (Jun 17, 6:20 AM)30.27 "Hg (Jun 17, 6:20 AM)
Low46 °F (Jun 20, 5:20 AM)28% (Jun 24, 4:50 PM)29.65 "Hg (Jun 17, 6:20 AM)
Average66 °F71%30.07 "Hg
* Reported Jun 17 6:20 AM — Jul 2 6:20 AM, Nuremberg, Weather by CustomWeather, © 2016

Note: Actual official high and low records may vary slightly from our data, if they occured in-between our weather recording intervals... More about our weather records

Advertising

Nuremberg Weather History for the Previous 24 Hours

Scroll right to see more
 ConditionsComfort  
Time TempWeatherWind HumidityBarometerVisibility
6:20 AM
Sat, Jul 2
61 °FSunny.5 mph94%29.95 "Hg10 mi
5:50 AM61 °FClear.3 mph94%29.95 "Hg10 mi
5:20 AM61 °FClear.5 mph94%29.95 "Hg10 mi
4:50 AM61 °FClear.5 mph94%29.95 "Hg10 mi
4:20 AM61 °FClear.5 mph94%29.95 "Hg10 mi
3:50 AM61 °FClear.2 mph94%29.95 "Hg10 mi
3:20 AM63 °FClear.1 mph88%29.95 "Hg10 mi
2:50 AM63 °FClear.2 mph88%29.95 "Hg10 mi
2:20 AM64 °FClear.3 mph83%29.98 "Hg10 mi
1:50 AM64 °FClear.6 mph83%29.98 "Hg10 mi
1:20 AM66 °FClear.2 mph78%29.98 "Hg10 mi
12:50 AM66 °FClear.1 mph78%29.98 "Hg10 mi
12:20 AM68 °FClear.1 mph73%29.98 "Hg10 mi
11:50 PM
Fri, Jul 1
66 °FClear.2 mph83%29.98 "Hg10 mi
11:20 PM66 °FClear.2 mph78%30.01 "Hg10 mi
10:50 PM68 °FClear.1 mph78%30.01 "Hg10 mi
10:20 PM70 °FSunny.2 mph73%30.01 "Hg10 mi
9:50 PM70 °FSunny.2 mph69%30.01 "Hg10 mi
9:20 PM72 °FSunny.1 mph65%29.98 "Hg10 mi
8:50 PM75 °FSunny.1 mph54%29.98 "Hg10 mi
8:20 PM75 °FPassing clouds.5 mph54%29.98 "HgN/A
7:50 PM77 °FPassing clouds.7 mph47%29.98 "HgN/A
7:20 PM79 °FPassing clouds.5 mph45%29.98 "HgN/A
6:50 PM79 °FSunny.8 mph45%29.98 "Hg10 mi
6:20 PM79 °FSunny.12 mph42%30.01 "Hg10 mi
5:50 PM79 °FSunny.12 mph42%30.01 "Hg10 mi
5:20 PM81 °FPassing clouds.13 mph42%30.01 "HgN/A
4:50 PM77 °FPassing clouds.9 mph47%30.01 "HgN/A
4:20 PM79 °FPassing clouds.9 mph42%30.01 "HgN/A
3:50 PM79 °FPassing clouds.10 mph42%30.01 "HgN/A
3:20 PM79 °FSunny.13 mph39%30.04 "Hg10 mi
2:50 PM79 °FPassing clouds.12 mph42%30.04 "HgN/A
2:20 PM79 °FScattered clouds.14 mph45%30.04 "HgN/A
1:50 PM75 °FScattered clouds.13 mph50%30.04 "HgN/A
1:20 PM77 °FScattered clouds.12 mph51%30.04 "HgN/A
12:50 PM75 °FScattered clouds.9 mph61%30.04 "HgN/A
12:20 PM73 °FPartly sunny.6 mph61%30.07 "HgN/A
11:50 AM72 °FSprinkles. Partly sunny.6 mph69%30.07 "HgN/A
11:20 AM70 °FSprinkles. Scattered clouds.7 mph69%30.07 "HgN/A
10:50 AM72 °FScattered clouds.7 mph65%30.07 "HgN/A
10:20 AM70 °FScattered clouds.3 mph69%30.07 "HgN/A
9:50 AM68 °FScattered clouds.3 mph73%30.07 "HgN/A
9:20 AM66 °FBroken clouds.1 mph83%30.07 "HgN/A
8:50 AM66 °FLight rain. Partly sunny.5 mph88%30.07 "HgN/A
8:20 AM64 °FLight rain. Broken clouds.2 mph88%30.07 "HgN/A
7:50 AM64 °FSunny.3 mph94%30.07 "Hg10 mi
7:20 AM63 °FSunny.5 mph94%30.07 "Hg10 mi
Weather by CustomWeather, © 2016

See weather overviewHow to use our weather pages